Vertical_Velocity
1 -3 -3 1 5 4 8 3 6 4 -0 -1 -1 1 0 1 0 1 -1 -1 -1 -2 -2 -1 -1 -0 2 -2 -1 -2 0 -2 -1
-0 2 -2 -3 5 10 1 -12 -14 5 2 -0 -1 -1 1 0 -0 0 -1 1 -2 -1 -2 0 -1 -2 3 -2 -2 -2 -1 1 -3
3 1 4 -1 -3 6 3 -2 -14 6 0 -1 -0 -1 -0 0 1 0 0 -0 -1 -1 -2 -1 -1 -0 -0 1 -2 -4 -1 -0 -3
4 3 3 2 1 -3 3 6 8 5 2 0 2 -1 -2 -1 -1 -1 0 2 -1 -1 -3 -2 1 -1 1 -1 -2 -0 -1 -2 -2
4 5 4 4 5 10 0 5 -0 14 3 0 2 1 1 -2 -2 -1 -2 2 3 -0 -2 -3 0 0 3 -1 -0 0 -0 -1 -0
1 1 4 0 -1 2 1 4 6 9 9 4 -0 0 1 1 -2 -0 -1 -2 -3 2 -2 -1 -0 -1 1 -1 1 -0 -1 -2 1
1 1 -1 5 1 -5 0 7 -0 6 5 10 13 -2 1 -1 -1 -3 -1 1 -1 1 -3 2 -2 -0 -1 -1 1 -2 -1 0 -0
0 0 -1 1 -2 1 8 4 5 16 -1 3 -2 12 4 1 1 -2 -2 4 7 -1 -1 -0 -1 3 -2 0 -2 -1 -1 -2 -1
-0 2 -1 -0 -3 -0 2 9 2 3 0 -2 7 6 5 -4 1 3 -4 4 6 -1 -1 -2 0 -3 -0 0 -1 -3 -2 -2 -2
2 1 -1 0 1 -4 -2 -2 25 3 8 5 -6 -3 4 20 0 2 4 -3 3 3 -2 -1 1 -4 4 1 -0 -1 -1 -0 -1
-5 0 2 -0 2 4 6 38 18 -1 8 -2 -14 1 7 10 6 -0 6 1 -0 6 -0 -0 1 -2 -0 0 -1 -0 -4 1 2
-1 -3 -1 -1 -4 -3 -0 -15 -17 -24 2 -14 -5 -13 -9 -6 12 3 7 4 7 3 2 1 5 4 5 3 1 1 -1 1 6
1 -1 -1 2 3 -0 -0 -2 -6 -6 6 5 2 -9 -1 -6 3 13 3 6 0 19 2 2 1 3 3 3 2 3 3 2 -0
1 1 -1 -1 1 4 -3 -2 5 -2 7 5 1 2 -2 -7 -3 2 6 7 6 36 4 5 2 11 1 4 3 6 1 -0 5
-1 1 0 -6 -1 2 4 0 7 -1 1 1 -3 5 5 -1 -4 -2 3 -3 -8 21 18 18 3 32 10 12 7 4 -2 1 -7
2 -1 3 -1 1 0 3 3 8 7 -1 4 8 6 2 0 3 37 0 -7 17 55 -1 -16 53 33 -1 7 2 0 2 -0 -1
14 4 10 13 -4 1 4 3 -3 2 3 -6 2 2 4 5 5 2 2 0 4 -7 -26 -2 5 -5 -3 -10 1 2 2 1 1
6 19 6 10 5 0 1 -4 -0 -3 1 7 -8 -6 -0 -4 1 5 2 2 2 7 -4 2 3 -6 5 -11 -6 -5 -2 1 -0
11 13 4 -7 9 -5 6 8 18 15 -4 4 3 -1 -6 -15 -2 5 5 6 13 20 10 2 15 -1 -6 -5 3 -5 -4 -6 1
-2 13 6 1 18 11 -2 16 2 5 18 7 -1 -3 8 2 -11 -3 -3 1 3 11 -1 5 -7 14 7 -3 0 1 -4 -1 -6
Height
1492 1494 1499 1503 1504 1509 1511 1513 1517 1521 1524 1526 1529 1531 1534 1537 1539 1541 1542 1544 1546 1547 1550 1552 1554 1556 1557 1558 1559 1559 1561 1562 1564
1492 1494 1496 1501 1505 1508 1510 1513 1517 1521 1524 1526 1529 1532 1534 1537 1540 1542 1544 1545 1547 1549 1551 1553 1556 1558 1559 1560 1561 1562 1563 1565 1566
1490 1494 1496 1499 1503 1507 1509 1512 1513 1521 1523 1526 1529 1532 1535 1538 1540 1543 1545 1546 1548 1550 1552 1555 1557 1560 1561 1563 1563 1564 1566 1567 1569
1489 1492 1495 1498 1502 1506 1509 1512 1515 1518 1522 1525 1528 1531 1534 1538 1541 1543 1546 1548 1549 1550 1553 1556 1558 1561 1563 1564 1565 1567 1568 1569 1571
1487 1491 1494 1496 1499 1504 1508 1511 1512 1517 1519 1523 1527 1530 1534 1537 1541 1544 1546 1549 1551 1551 1554 1556 1559 1562 1564 1565 1567 1568 1569 1571 1573
1484 1488 1491 1494 1498 1502 1506 1509 1511 1514 1517 1521 1525 1529 1532 1535 1539 1543 1546 1549 1551 1552 1554 1556 1558 1562 1564 1566 1568 1569 1570 1572 1575
1481 1485 1488 1491 1494 1498 1501 1504 1507 1510 1515 1520 1524 1526 1531 1534 1537 1542 1546 1548 1551 1552 1555 1556 1558 1561 1564 1567 1568 1570 1572 1574 1576
1478 1481 1484 1488 1491 1495 1499 1499 1500 1503 1510 1517 1521 1526 1530 1533 1536 1541 1545 1548 1550 1552 1555 1557 1558 1561 1564 1567 1569 1572 1574 1576 1578
1475 1477 1481 1484 1487 1490 1492 1494 1493 1495 1507 1513 1519 1523 1527 1531 1535 1539 1543 1547 1549 1551 1554 1556 1558 1562 1565 1568 1570 1572 1575 1578 1580
1472 1474 1478 1480 1482 1484 1487 1488 1488 1493 1502 1510 1516 1522 1526 1530 1533 1538 1542 1545 1548 1550 1553 1556 1558 1561 1566 1568 1570 1572 1575 1578 1581
1469 1471 1474 1476 1479 1481 1481 1480 1484 1492 1500 1505 1514 1521 1525 1530 1532 1536 1540 1543 1546 1548 1552 1554 1558 1560 1565 1567 1570 1572 1575 1579 1582
1465 1468 1471 1473 1477 1479 1483 1485 1490 1496 1503 1506 1511 1517 1522 1525 1530 1533 1537 1540 1544 1547 1550 1553 1556 1559 1562 1566 1569 1572 1575 1579 1582
1463 1465 1469 1472 1475 1477 1481 1484 1489 1496 1499 1502 1505 1513 1518 1524 1527 1530 1534 1538 1541 1545 1548 1551 1553 1556 1560 1564 1567 1570 1574 1579 1582
1461 1463 1467 1471 1473 1476 1477 1481 1485 1491 1496 1500 1506 1510 1516 1521 1523 1526 1530 1535 1538 1537 1543 1547 1551 1554 1557 1562 1565 1570 1573 1579 1583
1456 1460 1464 1467 1471 1473 1476 1480 1484 1487 1494 1500 1505 1508 1512 1518 1520 1522 1527 1532 1535 1531 1534 1540 1547 1547 1553 1555 1562 1568 1573 1577 1581
1453 1457 1461 1465 1470 1473 1476 1479 1483 1485 1491 1498 1500 1505 1510 1513 1518 1513 1523 1527 1532 1527 1533 1538 1541 1545 1551 1554 1562 1568 1572 1576 1579
1449 1453 1456 1460 1466 1471 1474 1477 1479 1485 1486 1492 1497 1503 1509 1509 1513 1518 1521 1524 1529 1530 1534 1539 1540 1546 1553 1556 1562 1568 1571 1574 1578
1446 1446 1451 1454 1459 1466 1471 1476 1480 1481 1485 1488 1493 1501 1503 1508 1513 1514 1517 1521 1525 1529 1532 1538 1540 1545 1551 1556 1561 1567 1570 1574 1576
1438 1443 1450 1453 1454 1462 1467 1474 1476 1480 1482 1486 1490 1494 1500 1503 1509 1512 1515 1517 1519 1522 1529 1534 1538 1543 1547 1553 1558 1563 1566 1571 1574
1441 1440 1447 1450 1451 1455 1462 1463 1470 1476 1478 1481 1487 1491 1495 1499 1501 1506 1512 1516 1517 1519 1527 1532 1536 1540 1545 1549 1555 1559 1563 1567 1572